SL-16 DEB, 22358

Orbit data source: Space-Track

SL-16 DEB, 22358 is space debris in LEO originally from a launch on Fri, 25 Dec 1992 UTC launched from the Tyuratam Missile And Space Complex (TTMTR). Debris objects in space refer to the collection of defunct objects orbiting the Earth. Examples of debris include non-operational satellites, rocket bodies, and fragments generated from explosions, collisions, or faulty payload assembly.

Loading next visibility...
Identifier
22358, 1992-093AX
Orbit
LEO
Country
Flag of CISCIS
Related business
Manufacturer
Unknown
Mission
Spacecraft
Bus & Motor
Unknown
Mass
Unknown
Launch date (UTC)
1992-12-25 (33 years ago)
Launch vehicle
Unknown
Launch site
Tyuratam Missile And Space Complex (TTMTR)
Object type
Payload
Rocket body
Debris
Shape & HBR
Unknown shape, 1.1 m
Radar Cross Section
Medium (>0.1 m² and <1 m²)

Expand to show TLE details & history
Last TLE update: 10 hours ago

TLE from 10 hours ago
0 SL-16 DEB
1 22358U 92093AX  26126.97103338  .00000045  00000-0  70895-4 0  9996
2 22358  71.2283 319.9748 0144093  75.7712  36.3456 13.84962490685132
Epoch: 2026-05-06T23:18Z
TLE epoch observation values (Epoch: 2026-05-06T23:18:17.284Z)
Latitude
60.66348°
Longitude
-111.40261°
Altitude
871.677 km
Speed
7.465 km/s
True Right ascension
06h 51m 58s
True Declination
60° 31' 07"
Sunlit
Object was in daylight at epoch
Visualization orbit readout
Latitude
Unknown
Longitude
Unknown
Altitude
Unknown
Speed
Unknown
Apparent Right ascension
Unknown
Apparent Declination
Unknown
Sunlit
N/A
Visualization observer readout
Local Sidereal Time
17:21:15
Azimuth
Unknown
Elevation
Unknown
Doppler factor
Unknown
Orbital elements
Apogee altitude
1,049.781 km
Perigee altitude
838.759 km
Semi-major axis
7,322.407 km
Eccentricity
0.01441
Inclination
71.2283°
RAAN
319.9748°
Arg. of periapsis
75.7712°
True anomaly
37.33853°
Mean anomaly
36.3456°
Eccentric anomaly
36.84062°
Mean motion
3.46388 °/min
Orbital period
103.93 mins
BSTAR
0.000070895
Loading maneuver chart data...
Computing Atmospheric mass density...
Loading historical data...
Loading historical data...
Loading historical data...
Loading historical data...
Loading historical data...
Loading historical data...
Loading historical data...

Documentation

Showing up to 5 results
|